Weather History for KSME - March, 2013

Change the Weather History Date:

Friday, March 15, 2013

  Actual Average Record
Temperature  
Mean Temperature 50 °F -  
Max Temperature 68 °F 57 °F 78 °F (2012)
Min Temperature 32 °F 34 °F 24 °F (1999)
Degree Days  
Heating Degree Days 15    
Moisture  
Dew Point 33 °F    
Average Humidity 57    
Maximum Humidity 87    
Minimum Humidity 30    
Precipitation  
Precipitation 0.00 in - - ()
Sea Level Pressure  
Sea Level Pressure 30.03 in    
Wind  
Wind Speed 5 mph (SSW)    
Max Wind Speed 14 mph    
Max Gust Speed 21 mph    
Visibility 10 miles    
Events      
Averages and records for this station are not official NWS values.
T = Trace of Precipitation, MM = Missing Value Source: NWS Daily Summary

Daily Weather History Graph

Daily Weather History Graph

Search for Another Location

Airport or City:

Trip Planner

Search our weather history database for the weather conditions in past years. The results will help you decide how hot, cold, wet, or windy it might be!

Date:

Astronomy

Mar. 15, 2013 Rise Set
Actual Time 7:49 AM EDT 7:46 PM EDT
Civil Twilight 7:23 AM EDT 8:11 PM EDT
Nautical Twilight 6:53 AM EDT 8:42 PM EDT
Astronomical Twilight 6:22 AM EDT 9:12 PM EDT
Moon 9:45 AM EDT (3/15) 11:52 PM EDT (3/15)
Length of Visible Light 12h 48m
Length of Day
11h 56m
Waxing Crescent, 15% of the Moon is Illuminated
Mar 15
Waxing Crescent
Mar 19
First Quarter
Mar 27
Full
Apr 3
Last Quarter
Apr 10
New

Hourly Weather History & Observations

Time (EDT) Temp. Windchill Dew Point Humidity Pressure Visibility Wind Dir Wind Speed Gust Speed Precip Events Conditions
12:15 AM 37.4 °F 33.8 °F 28.4 °F 70% 30.25 in 10.0 mi SW 4.6 mph - N/A   Mostly Cloudy
12:35 AM 37.4 °F 33.8 °F 28.4 °F 70% 30.25 in 10.0 mi SW 4.6 mph - N/A   Overcast
12:55 AM 37.4 °F 34.9 °F 28.4 °F 70% 30.24 in 10.0 mi SSW 3.5 mph - N/A   Overcast
1:15 AM 37.4 °F 34.9 °F 28.4 °F 70% 30.24 in 10.0 mi SSW 3.5 mph - N/A   Overcast
1:35 AM 37.4 °F 34.9 °F 28.4 °F 70% 30.22 in 10.0 mi South 3.5 mph - N/A   Overcast
2:15 AM 37.4 °F 34.9 °F 28.4 °F 70% 30.21 in 10.0 mi SSW 3.5 mph - N/A   Overcast
2:35 AM 37.4 °F 34.9 °F 28.4 °F 70% 30.21 in 10.0 mi SSW 3.5 mph - N/A   Mostly Cloudy
2:55 AM 37.4 °F 33.8 °F 28.4 °F 70% 30.21 in 10.0 mi SSW 4.6 mph - N/A   Mostly Cloudy
3:15 AM 35.6 °F 32.8 °F 28.4 °F 75% 30.20 in 10.0 mi South 3.5 mph - N/A   Scattered Clouds
3:35 AM 35.6 °F 32.8 °F 28.4 °F 75% 30.18 in 10.0 mi South 3.5 mph - N/A   Clear
3:55 AM 35.6 °F 32.8 °F 28.4 °F 75% 30.18 in 10.0 mi South 3.5 mph - N/A   Clear
4:15 AM 35.6 °F 31.7 °F 28.4 °F 75% 30.16 in 10.0 mi SSE 4.6 mph - N/A   Clear
4:35 AM 33.8 °F 28.6 °F 28.4 °F 81% 30.15 in 10.0 mi South 5.8 mph - N/A   Clear
4:55 AM 33.8 °F 29.6 °F 28.4 °F 81% 30.13 in 10.0 mi SSE 4.6 mph - N/A   Clear
5:15 AM 33.8 °F 29.6 °F 28.4 °F 81% 30.13 in 10.0 mi SSE 4.6 mph - N/A   Clear
5:35 AM 33.8 °F 29.6 °F 28.4 °F 81% 30.13 in 10.0 mi SSE 4.6 mph - N/A   Clear
5:55 AM 33.8 °F 28.6 °F 28.4 °F 81% 30.13 in 10.0 mi SSE 5.8 mph - N/A   Clear
6:15 AM 33.8 °F 29.6 °F 28.4 °F 81% 30.12 in 10.0 mi SSE 4.6 mph - N/A   Clear
6:35 AM 33.8 °F 29.6 °F 28.4 °F 81% 30.12 in 10.0 mi SSE 4.6 mph - N/A   Clear
6:55 AM 33.8 °F 30.8 °F 28.4 °F 81% 30.12 in 10.0 mi SSE 3.5 mph - N/A   Clear
7:15 AM 33.8 °F 29.6 °F 28.4 °F 81% 30.12 in 10.0 mi SE 4.6 mph - N/A   Clear
7:35 AM 32.0 °F 26.4 °F 28.4 °F 87% 30.10 in 10.0 mi SE 5.8 mph - N/A   Clear
7:55 AM 32.0 °F 28.7 °F 28.4 °F 87% 30.10 in 10.0 mi SSE 3.5 mph - N/A   Clear
8:15 AM 33.8 °F 29.6 °F 28.4 °F 81% 30.09 in 10.0 mi SSE 4.6 mph - N/A   Clear
8:35 AM 35.6 °F 31.7 °F 28.4 °F 75% 30.09 in 10.0 mi SSE 4.6 mph - N/A   Clear
8:55 AM 35.6 °F 31.7 °F 30.2 °F 81% 30.08 in 10.0 mi South 4.6 mph - N/A   Clear
9:15 AM 37.4 °F 32.1 °F 30.2 °F 75% 30.08 in 10.0 mi South 6.9 mph - N/A   Clear
9:35 AM 39.2 °F 35.9 °F 30.2 °F 70% 30.08 in 10.0 mi South 4.6 mph - N/A   Clear
9:55 AM 41.0 °F 39.0 °F 30.2 °F 65% 30.08 in 10.0 mi SSE 3.5 mph - N/A   Clear
10:15 AM 42.8 °F 41.1 °F 30.2 °F 61% 30.08 in 10.0 mi South 3.5 mph - N/A   Clear
10:35 AM 44.6 °F 43.1 °F 30.2 °F 57% 30.08 in 10.0 mi SSW 3.5 mph - N/A   Clear
11:55 AM 51.8 °F - 32.0 °F 47% 30.04 in 10.0 mi WSW 6.9 mph - N/A   Clear
12:15 PM 53.6 °F - 32.0 °F 44% 30.04 in 10.0 mi WSW 13.8 mph 17.3 mph N/A   Clear
12:35 PM 53.6 °F - 32.0 °F 44% 30.04 in 10.0 mi West 12.7 mph - N/A   Clear
12:55 PM 55.4 °F - 32.0 °F 41% 30.03 in 10.0 mi SW 10.4 mph 16.1 mph N/A   Clear
1:15 PM 55.4 °F - 32.0 °F 41% 30.02 in 10.0 mi SW 9.2 mph - N/A   Clear
1:35 PM 57.2 °F - 33.8 °F 41% 30.02 in 10.0 mi SW 9.2 mph - N/A   Clear
1:55 PM 59.0 °F - 33.8 °F 39% 30.01 in 10.0 mi WSW 11.5 mph 17.3 mph N/A   Clear
2:15 PM 60.8 °F - 33.8 °F 36% 29.99 in 10.0 mi WSW 8.1 mph - N/A   Clear
2:35 PM 60.8 °F - 33.8 °F 36% 29.98 in 10.0 mi WSW 9.2 mph - N/A   Clear
2:55 PM 62.6 °F - 33.8 °F 34% 29.97 in 10.0 mi West 11.5 mph - N/A   Clear
3:15 PM 62.6 °F - 33.8 °F 34% 29.96 in 10.0 mi West 12.7 mph 16.1 mph N/A   Clear
3:35 PM 62.6 °F - 33.8 °F 34% 29.95 in 10.0 mi West 11.5 mph - N/A   Clear
3:55 PM 62.6 °F - 33.8 °F 34% 29.95 in 10.0 mi WSW 11.5 mph 16.1 mph N/A   Clear
4:15 PM 64.4 °F - 33.8 °F 32% 29.94 in 10.0 mi West 9.2 mph 12.7 mph N/A   Clear
4:35 PM 64.4 °F - 35.6 °F 34% 29.94 in 10.0 mi WSW 9.2 mph - N/A   Clear
4:55 PM 64.4 °F - 35.6 °F 34% 29.93 in 10.0 mi SW 8.1 mph - N/A   Clear
5:15 PM 66.2 °F - 35.6 °F 32% 29.93 in 10.0 mi West 8.1 mph - N/A   Clear
5:35 PM 66.2 °F - 35.6 °F 32% 29.91 in 10.0 mi WSW 11.5 mph - N/A   Clear
5:55 PM 68.0 °F - 35.6 °F 30% 29.91 in 10.0 mi West 12.7 mph 20.7 mph N/A   Clear
6:15 PM 66.2 °F - 35.6 °F 32% 29.91 in 10.0 mi WSW 10.4 mph - N/A   Clear
6:35 PM 66.2 °F - 35.6 °F 32% 29.90 in 10.0 mi West 8.1 mph - N/A   Clear
6:55 PM 64.4 °F - 37.4 °F 37% 29.90 in 10.0 mi WSW 9.2 mph 17.3 mph N/A   Clear
7:15 PM 64.4 °F - 37.4 °F 37% 29.91 in 10.0 mi WSW 9.2 mph - N/A   Clear
7:35 PM 62.6 °F - 37.4 °F 39% 29.90 in 10.0 mi WSW 10.4 mph - N/A   Clear
7:55 PM 60.8 °F - 37.4 °F 42% 29.90 in 10.0 mi WSW 6.9 mph - N/A   Clear
8:15 PM 60.8 °F - 37.4 °F 42% 29.90 in 10.0 mi SW 4.6 mph - N/A   Clear
8:35 PM 59.0 °F - 37.4 °F 45% 29.90 in 10.0 mi SW 3.5 mph - N/A   Clear
8:55 PM 59.0 °F - 37.4 °F 45% 29.90 in 10.0 mi Calm Calm - N/A   Clear
9:15 PM 59.0 °F - 37.4 °F 45% 29.90 in 10.0 mi Calm Calm - N/A   Mostly Cloudy
9:35 PM 57.2 °F - 37.4 °F 48% 29.89 in 10.0 mi Calm Calm - N/A   Overcast
9:55 PM 55.4 °F - 39.2 °F 54% 29.89 in 10.0 mi Calm Calm - N/A   Overcast
10:15 PM 55.4 °F - 39.2 °F 54% 29.88 in 10.0 mi Calm Calm - N/A   Overcast
10:35 PM 53.6 °F - 41.0 °F 62% 29.88 in 10.0 mi Calm Calm - N/A   Scattered Clouds
10:55 PM 51.8 °F - 41.0 °F 67% 29.88 in 10.0 mi Calm Calm - N/A   Scattered Clouds
11:15 PM 53.6 °F - 41.0 °F 62% 29.88 in 10.0 mi Calm Calm - N/A   Scattered Clouds
11:35 PM 51.8 °F - 41.0 °F 67% 29.87 in 10.0 mi Calm Calm - N/A   Overcast
11:55 PM 53.6 °F - 41.0 °F 62% 29.86 in 10.0 mi Calm Calm - N/A   Overcast